Location: Newark
(45.8667°N, 9.7333°E)
Time: 03:29:12
(UTC+00:00)

A-11 Canister half - Pass Details

Date: 22 January 2020
Orbit: 1517 x 1683 km, 47.2° (Epoch: 18 February)

Event Time Altitude Azimuth Distance (km) Brightness Sun altitude
Rises 21:25:40 0° 186° (S) 4,748 - -53.0°
Reaches altitude 10° 21:29:52 10° 170° (S) 3,740 - -53.6°
Maximum altitude 21:36:03 20° 128° (SE) 3,004 - -54.5°
Drops below altitude 10° 21:42:09 10° 86° (E) 3,691 - -55.3°
Sets 21:46:13 0° 71° (ENE) 4,667 - -55.9°
